User: anonymous   Login
Location: Unspecified
(0.0000°N, 0.0000°E)
Time: 22:00:20
(UTC+00:00)
Language:

Cosmos 2341 - Orbit

View from above orbital plane
View from above orbital plane
View from above satellite
View from above satellite

Ground track
Ground track

The orbit data is extracted from the following two-line orbital elements,

1 24772U 97017A   18018.19132128  .00000035  00000-0  21930-4 0  9998
2 24772  82.9203 233.4476 0026351 134.4157   4.9776 13.71398387 38957
Epoch (UTC): 18 January 2018 04:35:30
Eccentricity: 0.0026351
inclination: 82.9203°
perigee height: 975 km
apogee height: 1014 km
right ascension of ascending node: 233.4476°
argument of perigee: 134.4157°
revolutions per day: 13.71398387
mean anomaly at epoch: 4.9776°
orbit number at epoch: 3895

The dashed part of the orbit path shows where the satellite is in the earth's shadow,  

DLR